Погода в Танджавуре

Индия     10°47′08″N   79°08′41″E
темп.,
°C
ветер,
м/с
пор.,
м/с
влажн.,
%
обл.,
%
осадки,
мм/ч
давл.,
гПа
погр.,
м
28 ноября, вс
вс2823:30+23с41096100 1.4 1010360
02:30+23с4109697 0.1 1009336
05:30+22с41097100 2.9 1010379
08:30+25с5792100 1.3 1012419
11:30+27с5684100 1.3 1011710
14:30+27ссв5679100 0.3 1008844
17:30+26ссв598897 0.4 1009457
20:30+24ссв51093100 0.0 1011404
29 ноября, пн
пн2923:30+23с51095100 0.0 1011353
02:30+23с51096100 0.1 1009332
05:30+23с4996100 0.4 1010286
08:30+25ссв5789100 0.2 1013399
11:30+27св5681100 2.0 1012769
14:30+27всв4680100 0.9 1009693
17:30+25всв358883 1.1 1010182
20:30+23всв2496100 1.7 1012100
30 ноября, вт
вт3023:30+22св239876 3.8 101271
02:30+22св249864 3.1 1010101
05:30+22с229840 5.7 101059
08:30+25с339169 1.4 1013383
11:30+28всв347898 2.9 1011947
14:30+27в347653 1.8 1008814
17:30+25всв358959 3.4 1009119
20:30+23св369562 1.9 1012144
1 декабря, ср
ср123:30+23св249643 3.1 101296
02:30+23ссв2397100 2.9 1010111
05:30+23ссв359776 3.6 1010171
08:30+25ссв358560 0.7 1012298
11:30+28всв457032 1.2 10111109
14:30+29всв456937 1.8 10081065
17:30+25всв36858 3.5 1008159
20:30+24св339022 0.1 101166
2 декабря, чт
чт223:30+23ссв229225 0.1 101131
02:30+23с349615 0.0 100980
05:30+22с24978 0.0 1010108
08:30+25с348626 0.0 1012418
11:30+29ссв336949 0.1 10111184
14:30+29ссв3369100 0.2 1007747
17:30+25всв4787100 1.2 1008171
20:30+24св3693100 0.0 1011158